This demonstration page uses our WeatherBlox Daily Observations layout. Learn more.

Left ArrowRight Arrow

41.86663, -103.66717

Hourly Observations for October 30, 2015

Temp ( °F °C ) Dew Point ( °F °C ) Humidity (%) Winds ( mph kmh ) Pressure ( in mb ) Visibility ( mi km ) Precip ( " mm )
12:53 am 00:53 Partly Cloudy 40 4.4 31 -0.6 70 70 ESE 10 17 29.82 1010 10 16 N/A
1:53 am 01:53 Mostly Clear 38 3.3 31 -0.6 76 76 ESE 10 17 29.80 1009 10 16 N/A
2:53 am 02:53 Clear 37 2.8 30 -1.1 76 76 E 8 13 29.80 1009 10 16 N/A
3:53 am 03:53 Clear 34 1.1 29 -1.7 82 82 E 7 11 29.80 1009 10 16 N/A
4:53 am 04:53 Mostly Cloudy 33 0.6 29 -1.7 85 85 N N/A 29.82 1010 9 14 N/A
5:53 am 05:53 Mostly Cloudy 35 1.7 31 -0.6 85 85 WNW 5 7 29.84 1011 10 16 N/A
6:53 am 06:53 Cloudy 36 2.2 32 undefined 86 86 WNW 3 6 29.87 1011 10 16 N/A
7:53 am 07:53 Mostly Cloudy 36 2.2 32 undefined 86 86 WNW 5 7 29.89 1012 10 16 N/A
8:53 am 08:53 Cloudy 41 5 34 1.1 76 76 WNW 7 11 29.89 1012 10 16 N/A
9:53 am 09:53 Cloudy 49 9.4 36 2.2 61 61 W 7 11 29.87 1012 10 16 N/A
10:53 am 10:53 Sunny 55 12.8 33 0.6 44 44 N 14 22 29.84 1011 10 16 N/A
11:53 am 11:53 Partly Cloudy 59 15 30 -1.1 33 33 N 10 17 29.85 1011 10 16 N/A
12:53 pm 12:53 Cloudy 60 15.6 29 -1.7 31 31 NNW 14 22 29.84 1010 10 16 N/A
1:53 pm 13:53 Cloudy 57 13.9 30 -1.1 36 36 NW 10 17 29.81 1009 10 16 N/A
2:53 pm 14:53 Sunny 58 14.4 29 -1.7 33 33 NNW 9 15 29.78 1008 10 16 N/A
3:53 pm 15:53 Sunny 58 14.4 29 -1.7 33 33 W 6 9 29.78 1008 10 16 N/A
4:53 pm 16:53 Sunny 57 13.9 29 -1.7 34 34 WNW 5 7 29.77 1008 10 16 N/A
5:53 pm 17:53 Clear 51 10.6 29 -1.7 43 43 W 3 6 29.76 1008 10 16 N/A
6:53 pm 18:53 Clear 46 7.8 29 -1.7 51 51 N N/A 29.76 1008 10 16 N/A
7:53 pm 19:53 Clear 41 5 31 -0.6 67 67 undefined N/A 29.77 1008 10 16 N/A
8:53 pm 20:53 Clear 37 2.8 29 -1.7 73 73 E 5 7 29.76 1008 10 16 N/A
9:53 pm 21:53 Clear 35 1.7 29 -1.7 78 78 E 9 15 29.73 1007 10 16 N/A
10:53 pm 22:53 Clear 35 1.7 30 -1.1 82 82 undefined N/A 29.71 1006 10 16 N/A
11:53 pm 23:53 Clear 36 2.2 30 -1.1 79 79 NE 7 11 29.68 1005 10 16 N/A

Powered by AerisWeather